Regional Weather Roundup
Issued by NWS San Angelo, TX

Home | Current Version | Previous Version | Text Only | Print | Product List | Glossary On
Versions: 1 2 3 4 5 6 7 8 9 10 11 12 13 14 15 16 17 18 19 20 21 22 23 24 25 26 27 28 29 30 31 32 33 34 35 36 37 38 39 40 41 42 43 44 45 46 47 48 49 50
000
ASUS44 KSJT 010511
RWRSJT
WEST CENTRAL TEXAS REGIONAL WEATHER ROUNDUP
NATIONAL WEATHER SERVICE SAN ANGELO TX
1200 AM CDT WED JUN 01 2016

NOTE: "FAIR" INDICATES FEW OR NO CLOUDS BELOW 12,000 FEET WITH NO
SIGNIFICANT WEATHER AND/OR OBSTRUCTIONS TO VISIBILITY.

TXZ049-054-064>066-071>073-076>078-098-099-113-114-127-128-139-140-
154-155-168>170-010600
...LOCATIONS ACROSS WEST CENTRAL TEXAS...

CITY           SKY/WX    TMP DP  RH WIND       PRES   REMARKS
SAN ANGELO     CLOUDY    67  64  90 SW9       29.88R
ABILENE        LGT RAIN  67  66  97 E12       29.93R
DYESS AFB      CLOUDY    67  63  85 E8        29.92S
JUNCTION       CLOUDY    67  66  97 CALM      29.91R
SWEETWATER     CLOUDY    65  64  94 CALM      29.96R
BROWNWOOD      CLOUDY    68  66  94 E6        29.91R
COLEMAN        CLOUDY    68  67  95 E8        29.93R
SONORA         MOCLDY    70  64  83 CALM      29.97R
OZONA          FAIR      68  61  77 E9        29.95F
BRADY          NOT AVBL
$$

TEXAS PANHANDLE/OKLAHOMA PANHANDLE

CITY           SKY/WX    TMP DP  RH WIND       PRES   REMARKS
AMARILLO       CLOUDY    63  57  81 E10       30.05R
BORGER         CLOUDY    66  57  72 E9        30.02F
CANADIAN       CLOUDY    61  57  87 CALM      30.01R
DALHART        CLOUDY    62  55  77 E9        30.06S
DUMAS          CLOUDY    60  53  76 E9        30.05S
GUYMON         NOT AVBL
HEREFORD       CLOUDY    64  58  80 E12G18    30.05S
PAMPA          CLOUDY    62  58  86 E9        30.04R
PERRYTON       CLOUDY    63  57  81 E7        30.03S
$$

SOUTHERN PANHANDLE/SOUTH PLAINS/ROLLING PLAINS

CITY           SKY/WX    TMP DP  RH WIND       PRES   REMARKS
LUBBOCK        TSTM      66  60  81 NE8       29.98S
SNYDER           N/A     68  65  90 NW8       29.96R
CHILDRESS      CLOUDY    69  65  86 E7        29.95F
SEMINOLE       CLOUDY    62  60  91 CALM      29.99F
$$

PERMIAN BASIN

CITY           SKY/WX    TMP DP  RH WIND       PRES   REMARKS
MIDLAND        TSTM      63  57  81 W10G16    30.02R
ODESSA         TSTM      63  58  83 E15G26    29.99R
WINK           CLOUDY    64  59  83 E13       29.94R
$$

FAR WEST/SOUTHWEST MOUNTAINS/TRANS PECOS

CITY           SKY/WX    TMP DP  RH WIND       PRES   REMARKS
ALPINE         CLOUDY    57  55  91 S7        30.07F
DRYDEN           N/A     68  61  78 S6        29.92R
EL PASO        PTCLDY    73  41  31 N9        29.96R
FORT STOCKTON  NOT AVBL
GUADALUPE PASS NOT AVBL
MARFA          CLOUDY    59  55  87 NW10      30.06S
PECOS          CLOUDY    65  61  85 NE7       29.97R
$$

DALLAS/FORT WORTH METROPLEX

CITY           SKY/WX    TMP DP  RH WIND       PRES   REMARKS
DFW AIRPORT    CLOUDY    69  64  84 E3        29.86F
FTW MEACHAM    MOCLDY    69  65  86 SE5       29.89S
DAL-EXECUTIVE  MOCLDY    67  65  93 SE7       29.87F
GRAND PRAIRIE  PTCLDY    68  66  93 E6        29.89S
ADDISON        CLOUDY    70  66  89 SE10      29.88S
MESQUITE       CLOUDY    67  67  99 SE7       29.87F
LANCASTER      PTCLDY    66  64  94 SE3       29.89F
$$

NORTH CENTRAL TEXAS

CITY           SKY/WX    TMP DP  RH WIND       PRES   REMARKS
SHRMAN/DENISON CLOUDY    64  60  88 SE3       29.90F
GAINESVILLE    PTCLDY    65  64  95 CALM      29.94S
BRIDGEPORT     PTCLDY    65  65 100 CALM      29.94R
DENTON         PTCLDY    67  66  97 N6        29.88F
WAXAHACHIE     CLOUDY    66  66 100 E6        29.90F
GRANBURY         N/A     69  65  89 CALM      29.93R
$$

WESTERN NORTH TEXAS

CITY           SKY/WX    TMP DP  RH WIND       PRES   REMARKS
WICHITA FALLS  CLOUDY    67  64  90 SE6       29.95R
VERNON         MOCLDY    70  63  78 E7        29.97S
BRECKENRIDGE   CLOUDY    68  67  94 E8        29.96R
COMANCHE       CLOUDY    67  67 100 E7        29.92S
$$

CENTRAL AND SOUTH CENTRAL TEXAS

CITY           SKY/WX    TMP DP  RH WIND       PRES   REMARKS
AUSTIN/BERGSTM CLOUDY    68  67  96 N3        29.87S
WACO           CLOUDY    69  67  93 E8        29.87F
HILLSBORO      CLOUDY    67  66  97 E13       29.90S
TEMPLE         MOCLDY    70  68  94 E12       29.87F
KILLEEN-GRAY   CLOUDY    69  67  96 E9        29.86F
FORT HOOD      CLOUDY    67  67  99 E7        29.86F
GEORGETOWN     CLOUDY    70  66  88 CALM      29.88F
LAGO VISTA     FOG       69  67  96 E5        29.91R VSB 1/4
SAN MARCOS     CLOUDY    66  66 100 CALM      29.87F
NEW BRAUNFELS  CLOUDY    69  67  93 NE3       29.86F
RANDOLPH AFB   CLOUDY    68  68 100 CALM      29.86F
SAN ANTONIO    CLOUDY    69  67  93 NE6       29.88S
STINSON        MOCLDY    71  66  84 N8        29.85F
PLEASANTON     NOT AVBL
LA GRANGE        N/A     71  70  97 CALM      29.85F
GIDDINGS       CLOUDY    68  67  97 CALM      29.90F
$$

EAST TEXAS

CITY           SKY/WX    TMP DP  RH WIND       PRES   REMARKS
PARIS          CLOUDY    66  57  72 CALM      29.88F
CLARKSVILLE    NOT AVBL
TYLER          CLOUDY    70  65  84 E6        29.91S
LONGVIEW       CLOUDY    69  66  90 S8        29.91S
PALESTINE      RAIN      69  67  93 CALM      29.93S
NACOGDOCHES    CLOUDY    70  64  83 NE5       29.90F
$$

TEXAS HILL COUNTRY AND EDWARDS PLATEAU

CITY           SKY/WX    TMP DP  RH WIND       PRES   REMARKS
LLANO          MOCLDY    68  68 100 SE5       29.91R
HORSESHOE BAY  FAIR      68  67  97 E3        29.89R
KERRVILLE      MOCLDY    69  67  95 E5        29.90F
FREDERICKSBRG  CLOUDY    66  65  95 S3        29.90F
ROCKSPRINGS    CLOUDY    68  66  94 SE7       29.94S
HONDO          CLOUDY    70  68  93 SE9       29.88F
UVALDE         PTCLDY    69  67  94 NE7       29.90R
DEL RIO        CLOUDY    73  67  81 E6        29.88R
$$

SOUTHEAST TEXAS

CITY           SKY/WX    TMP DP  RH WIND       PRES   REMARKS
COLLEGE STN    MOCLDY    69  68  96 CALM      29.86F
CALDWELL       CLOUDY    68  68 100 CALM      29.90S
CROCKETT       MOCLDY    75  68  78 N7        29.91F
BRENHAM        CLOUDY    72  71  98 CALM      29.86F
HUNTSVILLE     CLOUDY    71  69  93 E3        29.87R
CONROE         CLOUDY    73  71  93 CALM      29.87R
HOUSTON BUSH   CLOUDY    77  70  79 SE9       29.85F
HOUSTON HOBBY  CLOUDY    79  72  79 SE9       29.84F
PERLAND        CLOUDY    80  74  81 SE10      29.87F
WHARTON        CLOUDY    73  71  93 CALM      29.84R
$$

THE UPPER TEXAS COAST

CITY           SKY/WX    TMP DP  RH WIND       PRES   REMARKS
ORANGE         PTCLDY    76  71  82 SE3       29.94F
PORT ARTHUR    CLOUDY    75  72  90 S6        29.90F
GALVESTON      CLOUDY    75  73  93 SE17      29.90F
ANGLETON       CLOUDY    77  74  90 S16       29.85F
BAY CITY       LGT RAIN  74  72  93 S12       29.80F
$$

TEXAS COASTAL BEND, RIO GRANDE PLAINS DEEP SOUTH TEXAS

CITY           SKY/WX    TMP DP  RH WIND       PRES   REMARKS
VICTORIA       CLOUDY    72  69  90 W3        29.83F
BEEVILLE       MOCLDY    73  73 100 E6        29.85R
ROCKPORT       CLOUDY    76  72  87 SE16      29.82R
PORT ARANSAS   DRIZZLE   76  72  86 SE24G35   29.81F
PORT LAVACA    CLOUDY    74  71  92 SE15G21   29.80R
CORPUS CHRISTI LGT RAIN  76  71  85 SE21G35   29.77F
KINGSVILLE NAS   N/A    N/A N/A N/A MISG      29.76S
COTULLA        CLOUDY    73  69  87 SE9       29.83F
LAREDO         CLOUDY    72  67  84 E13       29.80F
BROWNSVILLE    CLOUDY    80  74  81 E6        29.87R
PORT ISABEL    CLOUDY    83  76  79 E14       29.87R
HEBBRONVILLE   LGT RAIN  70  69  95 SE9       29.85F
MCALLEN        TSTM      73  69  87 NE33G47   29.87R VSB 1/2
WESLACO        TSTM      78  70  76 NE16G25   29.87R
FALFURRIAS     CLOUDY    76  71  85 SE17G32   29.80F
EDINBURG       TSTM      72  69  90 SE15      29.91R
$$



USA.gov is the U.S. government's official web portal to all federal, state and local government web resources and services.